Mullan Pass, ID

4:41 PM PDT on April 29, 2017 (GMT -0700)
Mullan Pass

Weather History for KMLP - October, 2013

Change the Weather History Date:

Thursday, October 17, 2013

  Actual Average (K3TH) Record (K3TH)
Temperature  
Mean Temperature 34 °F -  
Max Temperature 39 °F 55 °F 71 °F (2000)
Min Temperature 30 °F 34 °F 25 °F (1996)
Degree Days  
Heating Degree Days 30    
Moisture  
Dew Point 30 °F    
Average Humidity 82    
Maximum Humidity 96    
Minimum Humidity 65    
Precipitation  
Precipitation 0.00 in - - ()
Sea Level Pressure  
Sea Level Pressure 30.13 in    
Wind  
Wind Speed 4 mph (NW)    
Max Wind Speed 6 mph    
Max Gust Speed -    
Visibility 10 miles    
Events      
Averages and records for this station are not official NWS values.
T = Trace of Precipitation, MM = Missing Value Source: NWS Daily Summary

Daily Weather History Graph

Daily Weather History Graph

Search for Another Location

Airport or City:

Trip Planner

Search our weather history database for the weather conditions in past years. The results will help you decide how hot, cold, wet, or windy it might be!

Date:

Astronomy

Oct. 17, 2013 Rise Set
Actual Time 7:04 AM PDT 5:50 PM PDT
Civil Twilight 6:33 AM PDT 6:21 PM PDT
Nautical Twilight 5:57 AM PDT 6:57 PM PDT
Astronomical Twilight 5:22 AM PDT 7:32 PM PDT
Moon 5:09 PM PDT (10/17) 5:37 AM PDT (10/17)
Length of Visible Light 11h 47m
Length of Day
10h 45m
Waxing Gibbous, 98% of the Moon is Illuminated
Oct 17
Waxing Gibbous
Oct 18
Full
Oct 26
Last Quarter
Nov 3
New
Nov 9
First Quarter

Hourly Weather History & Observations

Time (PDT) Temp. Windchill Dew Point Humidity Pressure Visibility Wind Dir Wind Speed Gust Speed Precip Events Conditions
12:53 AM 33.1 °F 27.7 °F 28.0 °F 82% 30.05 in 10.0 mi NW 5.8 mph - N/A   Clear
1:53 AM 33.1 °F 28.7 °F 28.0 °F 82% 30.05 in 10.0 mi WNW 4.6 mph - N/A   Clear
2:53 AM 32.0 °F 27.5 °F 28.9 °F 88% 30.04 in 10.0 mi NW 4.6 mph - N/A   Clear
3:53 AM 32.0 °F 27.5 °F 28.9 °F 88% 30.04 in 10.0 mi NW 4.6 mph - N/A   Clear
4:53 AM 32.0 °F 26.4 °F 28.9 °F 88% 30.06 in 10.0 mi NW 5.8 mph - N/A   Clear
5:53 AM 30.9 °F 25.2 °F 28.9 °F 92% 30.07 in 10.0 mi NNW 5.8 mph - N/A   Clear
6:11 AM 32.0 °F 27.5 °F 30.2 °F 93% 30.16 in 10.0 mi NNW 4.6 mph - N/A   Mostly Cloudy
6:53 AM 33.1 °F 30.0 °F 30.0 °F 89% 30.08 in 10.0 mi Variable 3.5 mph - N/A   Overcast
7:06 AM 32.0 °F 28.7 °F 30.2 °F 93% 30.17 in 10.0 mi WNW 3.5 mph - N/A   Overcast
7:53 AM 33.1 °F 30.0 °F 30.0 °F 89% 30.09 in 10.0 mi NW 3.5 mph - N/A   Overcast
8:53 AM 34.0 °F - 30.0 °F 85% 30.11 in 10.0 mi Calm Calm - N/A   Overcast
9:53 AM 36.0 °F - 30.9 °F 82% 30.10 in 10.0 mi Calm Calm - N/A   Overcast
10:53 AM 37.9 °F - 32.0 °F 79% 30.11 in 10.0 mi Calm Calm - N/A   Overcast
11:53 AM 36.0 °F - 30.9 °F 82% 30.12 in 10.0 mi Calm Calm - N/A   Overcast
12:14 PM 37.4 °F 33.8 °F 30.2 °F 75% 30.21 in 10.0 mi Variable 4.6 mph - N/A   Overcast
12:53 PM 37.9 °F - 30.9 °F 76% 30.11 in 10.0 mi Calm Calm - N/A   Overcast
1:53 PM 39.0 °F - 28.0 °F 65% 30.11 in 10.0 mi Calm Calm - N/A   Overcast
2:53 PM 39.0 °F - 30.0 °F 70% 30.12 in 10.0 mi Calm Calm - N/A   Overcast
3:02 PM 39.2 °F - 30.2 °F 70% 30.21 in 10.0 mi Calm Calm - N/A   Overcast
3:09 PM 39.2 °F - 28.4 °F 65% 30.21 in 10.0 mi Calm Calm - N/A   Overcast
3:28 PM 39.2 °F 37.0 °F 30.2 °F 70% 30.22 in 10.0 mi North 3.5 mph - N/A   Overcast
3:53 PM 37.9 °F - 30.0 °F 73% 30.13 in 10.0 mi Calm Calm - N/A   Overcast
4:28 PM 37.4 °F - 30.2 °F 75% 30.22 in 10.0 mi Calm Calm - N/A   Overcast
4:53 PM 37.0 °F - 30.0 °F 76% 30.13 in 10.0 mi Calm Calm - N/A   Mostly Cloudy
5:53 PM 35.1 °F 31.0 °F 28.9 °F 78% 30.16 in 10.0 mi NW 4.6 mph - N/A   Clear
6:53 PM 35.1 °F 31.0 °F 30.0 °F 82% 30.16 in 10.0 mi NW 4.6 mph - N/A   Clear
7:53 PM 34.0 °F 31.0 °F 30.0 °F 85% 30.16 in 10.0 mi NW 3.5 mph - N/A   Clear
8:53 PM 34.0 °F 29.8 °F 30.9 °F 89% 30.17 in 10.0 mi WNW 4.6 mph - N/A   Clear
9:53 PM 34.0 °F 31.0 °F 30.9 °F 89% 30.15 in 10.0 mi WNW 3.5 mph - N/A   Clear
10:53 PM 34.0 °F 28.8 °F 30.9 °F 89% 30.15 in 10.0 mi WNW 5.8 mph - N/A   Clear
11:53 PM 33.1 °F 27.7 °F 32.0 °F 96% 30.16 in 9.0 mi WNW 5.8 mph - N/A   Clear